ANNABA current weather conditions

sailwx.info

Wind from 040 at 12 knots

Air temperature 28.0° C
Dewpoint 23.0° C

Last reported at 2015-Jul-06 16:30 UTC.
Time now 2015-Jul-06 17:52 UTC

Location: N 36°50' E 007°49'.
View on Google Maps.

See reports from other nearby stations

  
Tides and Currents Weather Stations Pressure Air Temp Water Temp Dewpoint Dewpoint Depression Visibility Wind Speed Wind Dir Waves Ship Positions
date/time (UTC)wind fromknots sea level pressurealtimeterstation pressurevisibilityair tempwater tempwave heightnotes
2015-Jul-06 16:30 040 12 28.0
2015-Jul-06 16:00 030 11 29.0
2015-Jul-06 15:30 030 12 29.0
2015-Jul-06 15:00 030 13 30.0
2015-Jul-06 14:30 030 13 29.0
2015-Jul-06 14:00 030 15 30.0
2015-Jul-06 13:30 030 15 30.0
2015-Jul-06 13:00 020 15 31.0
2015-Jul-06 12:30 020 14 31.0
2015-Jul-06 12:00 020 11 33.0
2015-Jul-06 11:30 020 10 34.0
2015-Jul-06 11:00 030 9 34.0
2015-Jul-06 10:30 030 7 33.0
2015-Jul-06 10:00 030 8 34.0
2015-Jul-06 09:30 030 6 33.0
2015-Jul-06 09:00 200 2 32.0
2015-Jul-06 07:30 220 5 27.0
2015-Jul-06 07:00 230 4 25.0
2015-Jul-06 06:30 240 4 23.0
2015-Jul-06 06:00 210 5 22.0
2015-Jul-06 05:30 200 4 20.0
2015-Jul-06 05:00 200 4 19.0
2015-Jul-06 04:30 180 4 18.0
2015-Jul-06 04:00 160 5 19.0
2015-Jul-06 03:30 170 4 19.0
2015-Jul-06 03:00 240 2 20.0
2015-Jul-06 02:30 210 4 20.0
2015-Jul-06 02:00 240 2 21.0
2015-Jul-06 01:30 260 2 21.0
2015-Jul-06 01:00 210 4 21.0
2015-Jul-06 00:30 200 4 21.0
2015-Jul-06 00:00 040 5 21.0
2015-Jul-05 23:30 030 7 23.0
2015-Jul-05 23:00 030 8 23.0
2015-Jul-05 22:30 020 6 24.0
2015-Jul-05 22:00 010 7 24.0
2015-Jul-05 21:30 020 6 25.0
2015-Jul-05 21:00 020 7 25.0
2015-Jul-05 20:30 010 5 25.0
2015-Jul-05 20:00 020 6 25.0
2015-Jul-05 19:30 020 8 26.0
2015-Jul-05 19:00 020 7 26.0
2015-Jul-05 18:30 030 8 27.0
2015-Jul-05 18:00 020 10 27.0
2015-Jul-05 17:30 020 9 27.0
2015-Jul-05 17:00 030 10 28.0
2015-Jul-05 16:30 030 10 5.428.0
2015-Jul-05 16:00 030 12 5.428.0
2015-Jul-05 15:30 050 10 5.428.0
2015-Jul-05 15:00 040 12 5.430.0
2015-Jul-05 14:30 030 13 5.430.0
2015-Jul-05 14:00 030 12 5.429.0
2015-Jul-05 13:30 030 13 5.430.0
2015-Jul-05 13:00 030 12 31.0
2015-Jul-05 12:30 030 10 32.0
2015-Jul-05 12:00 030 10 31.0
2015-Jul-05 11:30 060 10 32.0
2015-Jul-05 11:00 050 10 33.0
2015-Jul-05 10:30 060 10 33.0
2015-Jul-05 10:00 050 9 33.0
2015-Jul-05 09:30 050 8 33.0
2015-Jul-05 09:00 290 6 32.0
2015-Jul-05 08:30 260 3 31.0
2015-Jul-05 08:00 210 5 29.0
2015-Jul-05 07:30 200 5 28.0
2015-Jul-05 07:00 170 5 26.0
2015-Jul-05 06:30 200 3 24.0
2015-Jul-05 06:00 180 3 23.0
2015-Jul-05 05:30 180 3 21.0
2015-Jul-05 05:00 180 4 20.0
2015-Jul-05 04:00 180 3 20.0
2015-Jul-05 03:00 160 3 20.0
2015-Jul-05 02:30 180 3 21.0
2015-Jul-05 02:00 060 5 21.0
2015-Jul-05 01:30 050 5 21.0
2015-Jul-05 01:00 200 4 22.0
2015-Jul-05 00:30 22.0
2015-Jul-05 00:00 050 3 24.0
2015-Jul-04 23:30 24.0
2015-Jul-04 23:00 040 6 24.0
2015-Jul-04 22:30 060 5 24.0
2015-Jul-04 22:00 060 6 25.0
2015-Jul-04 21:30 030 7 24.0
2015-Jul-04 21:00 070 8 25.0
2015-Jul-04 20:30 040 6 25.0
2015-Jul-04 20:00 060 8 25.0
2015-Jul-04 19:30 050 11 25.0
2015-Jul-04 19:00 050 11 25.0
2015-Jul-04 18:30 040 12 26.0
2015-Jul-04 18:00 050 9 26.0
2015-Jul-04 17:30 060 11 27.0
2015-Jul-04 17:00 040 11 27.0